Regional Weather Roundup
Issued by NWS Charleston, SC

Current Version | Previous Version | Graphics & Text | Print | Product List | Glossary On
Versions: 1 2 3 4 5 6 7 8 9 10 11 12 13 14 15 16 17 18 19 20 21 22 23 24 25 26 27 28 29 30 31 32 33 34 35 36 37 38 39 40 41 42 43 44 45 46 47 48 49 50
000
ASUS42 KCHS 262313
RWRCHS

REGIONAL WEATHER ROUNDUP
NATIONAL WEATHER SERVICE CHARLESTON SC
700 PM EDT MON SEP 26 2016

NOTE: "FAIR" INDICATES FEW OR NO CLOUDS BELOW 12,000 FEET WITH NO
SIGNIFICANT WEATHER AND/OR OBSTRUCTIONS TO VISIBILITY.

NOT ALL STATIONS ARE QUALITY CONTROLLED. USE DATA WITH CAUTION...
ESPECIALLY DEWPOINT OBSERVATIONS.

SCZ027-030-031-034>040-042>050-270000-
...SOUTHEAST SOUTH CAROLINA...

CITY           SKY/WX    TMP DP  RH WIND       PRES   REMARKS
N CHARLESTON   LGT RAIN  77  72  84 E3        30.00S
WATERFRONT PRK   N/A     77  74  91 CALM      29.98S
MOUNT PLEASANT FAIR      79  73  83 CALM      30.01R
JOHNS ISLAND   FAIR      75  75 100 CALM      30.00S
PINOPOLIS        N/A     79  73  83 VRB3      29.94S
MONCKS CORNER  FAIR      75  72  88 E3        30.01R
SUMMERVILLE    FAIR      75  75 100 CALM      30.02R
BEAUFORT MCAS  CLOUDY    75  70  84 N6        30.02R
BEAUFORT ARPT  FAIR      75  72  88 N7        30.01R
HILTON HEAD IS MOCLDY    79  73  83 E5        30.00R
WALTERBORO     CLOUDY    77  77 100 CALM      30.03R
ALLENDALE      FAIR      77  72  83 SE5       30.01S

...SOUTHERN MIDLANDS AND PEE DEE...

CITY           SKY/WX    TMP DP  RH WIND       PRES   REMARKS
GEORGETOWN     FAIR      77  70  78 E6        30.02F
KINGSTREE      FAIR      72  70  94 CALM      30.02R
ORANGEBURG     CLOUDY    78  71  79 SE3       30.02R
BARNWELL       NOT AVBL
AIKEN          FAIR      77  68  73 SE7       30.05R
MANNING        LGT RAIN  72  70  94 CALM      30.02R
COLUMBIA       PTCLDY    81  71  71 S6        30.00R
SUMTER         MOCLDY    75  68  78 S7        30.00R
FLORENCE       CLOUDY    79  71  76 S7        30.02R
MYRTLE BEACH   PTCLDY    79  64  61 SE9       30.04R
N MYRTLE BEACH PTCLDY    79  70  74 E7        30.02S

$$

GAZ063-065-086>088-099>101-113>116-118-119-134>141-150-270000-
...SOUTHEAST GEORGIA...

CITY           SKY/WX    TMP DP  RH WIND       PRES   REMARKS
SAVANNAH ARPT  MOCLDY    79  68  69 E3        30.01R
HUNTER AAF     PTCLDY    78  76  93 NE5       29.97R
FORT STEWART   MOCLDY    78  69  76 CALM      29.98R
STATESBORO     PTCLDY    78  72  80 CALM      30.02R
SYLVANIA       NOT AVBL
CLAXTON        FAIR      79  73  81 NE3       30.00R

...CSRA...CENTRAL AND FAR SOUTHEAST GEORGIA...

CITY           SKY/WX    TMP DP  RH WIND       PRES   REMARKS
THOMSON        MOCLDY    83  72  68 SW5       30.06R
AUGUSTA-BUSH   PTCLDY    78  69  73 S8        30.01R
AUGUSTA-DANIEL PTCLDY    81  68  64 SE7       30.02R
SWAINSBORO     FAIR      77  70  78 CALM      30.02R
VIDALIA        MOCLDY    81  77  89 E5        30.01R
EASTMAN        FAIR      85  56  37 E7        30.02R
HAZLEHURST     FAIR      84  71  65 W7        29.98R
ALMA           CLEAR     81  67  62 E3        29.99R
WAYCROSS       CLEAR     83  73  70 E6        29.98R
JESUP          FAIR      79  73  83 E5        30.00R
BAXLEY         FAIR      82  73  74 E3        29.99R
BRUNSWICK      PTCLDY    79  73  83 E9        29.99R
SAINT SIMONS   PTCLDY    80  71  74 NE7       29.97R

$$

SCZ027-028-034-036>038-045-046-048>050-GAZ119-141-270000-
...LAKE AND SUPPLEMENTAL COASTAL OBSERVATIONS...

STATION/POSITION TIME  TEMP    WIND        PRES    WAVE   SWELL
                       AIR SEA DIR/SP/G            HT/PER HT/PER/DIR
                 (UTC) (F)     (DEG/KT/KT) (MB)    (FT/S) (FT/S/D)
WINYAH BAY       2145   80      90/ 11     1015.0
LAKE MURRAY      2220   83     140/  9/ 11 1014.9S
ACE BASIN NERRS  2145   72      70/  1     1016.0
FORT PULASKI     2248      81   70/ 11/ 12 1016.1R
SAPELO ISLAND    2200   81      60/ 10     1015.0

$$

ANZ835-935-AMZ111-154-330-350-352-354-370-450-454-472-270000-
...C-MAN AND BUOY OBSERVATIONS...

STATION/POSITION TIME  TEMP    WIND        PRES    WAVE   SWELL
                       AIR SEA DIR/SP/G            HT/PER HT/PER/DIR
                 (UTC) (F)     (DEG/KT/KT) (MB)    (FT/S) (FT/S/D)
BUOY 41004       2250   78 82  100/ 12/ 16 1015.1R   3/ 8   2/100/ 8
BUOY 41008       2250   80 82   80/ 16/ 17 1014.4R   4/ 5   2/100/ 9
FOLLY BEACH CMAN 2300   78     100/ 10/ 11 1016.0R
CAPERS NEARSHORE 2208   80 81  110/ 12/ 19 1015.3S
FRIPP NEARSHORE  2208   77 81   90/ 12/ 16 1015.2F


STATION/POSITION TIME  TEMP    WIND        PRES    WAVE   SWELL
                       AIR SEA DIR/SP/G            HT/PER HT/PER/DIR
                 (UTC) (F)     (DEG/KT/KT) (MB)    (FT/S) (FT/S/D)
5E ST. MARYS GA  2201      82                N/A     4/10
FRYING PAN BUOY  2250   79 82   70/ 14/ 17 1016.0S   4/ 8   2/110/ 8
BUOY 41025       2250   78 80  150/ 10/ 14 1017.8R   3/ 8   2/ 70/ 8
CAPE LOOKOUT NC  2300   78     130/ 10/ 12 1017.3R
BUOY 41002       2250   79 83  110/ 19/ 23 1016.2F   5/ 5   2/ 70/10
BUOY 41010       NOT AVBL
ST AUGUSTINE FL  2300   80 85   30/ 12/ 14 1014.7R


$$



USA.gov is the U.S. government's official web portal to all federal, state and local government web resources and services.